STARLINK-34607

Last updated on Sat Aug 02 2025 00:02:05 GMT+0000 (Coordinated Universal Time)

1 64742U 25144U 25213.58335648 .00090408 00000+0 22442-2 0 9990 2 64742 53.1593 124.8417 0001438 119.1735 197.1152 15.39610028 6075
UTC large
Height (km)
Speed (km/s)
/
Latitude / Longitude
Inclination (degrees)
Orbital Period (minutes)
Azimuth
Elevation
Range (km)
Doppler Factor

Next 0 passes for location: London (51.5072 / 0.1276)

Sorry there are no passes over London.